Wind_Speed
48 50 52 49 43 41 43 47 49 48 48 49 50 50 49 51 51 44 40 41 44 52 55 52 54 55 49 42 36 34 34 31 30 32 33 32 32 32 31 30 31 32 31 31 31 30 30 31 32 33 34 35 34 33 35 36 35 34 35 36 37 36 35 34 34 33 33 33 34 36 37 39 39 39 40 41 41 41 41 40 39 39 39 40 40 40
49 51 51 46 42 42 45 47 49 50 51 52 53 52 51 53 52 48 45 43 45 53 56 54 57 58 52 45 39 37 36 32 31 32 31 30 31 31 30 31 33 34 33 32 33 32 32 32 32 33 33 34 33 32 34 35 35 34 35 37 37 36 35 34 34 34 35 35 36 37 39 40 41 41 41 41 42 41 41 41 41 40 40 41 41 41
52 52 49 45 44 44 45 46 48 51 53 56 56 55 55 54 54 54 50 46 48 55 58 57 59 61 56 48 42 39 38 35 31 31 30 29 31 31 30 31 33 35 35 35 36 36 35 34 34 34 34 34 33 33 34 35 34 35 36 37 36 35 34 34 35 36 37 37 38 39 40 42 43 43 43 43 42 41 42 42 42 43 43 43 43 43
53 52 47 46 47 46 45 45 47 50 53 56 56 57 58 55 55 58 54 49 52 57 59 59 62 64 58 52 45 40 40 36 32 31 30 31 32 32 32 31 32 33 34 36 37 36 36 36 38 37 35 33 32 33 34 34 34 35 36 35 34 34 35 36 37 38 39 39 40 41 42 43 44 44 44 44 43 43 43 44 44 45 45 46 46 46
54 51 48 49 50 48 46 45 46 48 51 53 54 56 57 55 55 58 57 54 56 59 59 61 65 64 58 54 48 42 42 39 35 34 33 34 34 33 32 32 33 33 33 35 35 35 36 38 40 38 36 34 33 33 33 33 34 34 34 33 33 35 36 37 39 40 40 41 42 43 44 44 45 45 45 45 45 45 45 46 47 46 47 47 47 47
54 49 47 49 50 48 47 46 45 46 48 50 52 52 53 55 56 57 57 58 61 62 60 61 67 65 57 54 50 45 45 42 38 37 35 36 38 36 33 32 33 33 34 35 35 36 37 38 39 38 37 35 33 33 33 32 32 32 33 33 34 36 38 39 40 42 42 43 44 44 44 44 45 45 45 46 46 47 48 48 49 49 48 48 48 49
53 46 45 46 47 48 48 49 46 44 47 51 51 49 49 53 55 56 56 58 62 65 64 64 68 68 60 53 51 49 48 43 38 37 37 37 39 38 36 34 33 33 35 36 37 36 36 37 38 37 37 36 35 33 32 31 31 32 33 34 36 38 40 41 43 44 45 45 46 45 45 45 45 46 47 47 48 49 49 50 51 51 50 49 49 50
50 45 45 45 45 49 50 48 45 44 49 52 50 49 50 51 53 55 56 59 61 63 65 67 69 70 63 52 49 52 52 47 40 37 37 37 38 38 37 37 35 34 35 36 37 36 36 37 37 36 36 36 35 34 32 32 33 34 35 36 38 40 42 44 45 47 47 47 47 46 45 45 46 47 48 49 49 50 51 52 52 52 51 51 51 51
48 46 46 46 49 50 48 45 44 46 50 51 50 51 51 51 52 53 55 58 60 61 61 64 67 69 64 54 52 55 54 48 42 39 37 36 38 38 35 37 37 35 35 35 36 36 36 36 35 35 35 35 36 35 34 34 34 35 36 38 41 43 45 46 47 48 48 48 48 47 46 46 47 48 49 49 50 51 52 53 53 53 52 51 51 51
48 47 46 49 51 50 47 45 46 48 50 50 51 52 53 53 53 54 55 56 59 60 59 61 64 65 62 56 53 54 51 48 46 44 40 37 40 39 34 33 36 37 35 34 34 34 34 34 33 33 32 34 36 36 36 36 36 37 39 41 43 45 46 47 48 49 49 49 48 48 47 46 47 48 48 48 49 51 54 55 54 52 52 52 52 51
47 47 49 51 50 49 49 49 49 50 51 51 51 53 54 56 55 55 57 56 59 60 58 58 60 61 60 56 53 53 51 50 49 46 44 42 43 42 36 32 36 40 38 35 34 34 35 35 34 34 33 33 35 37 38 38 38 39 41 42 44 45 46 47 48 49 49 50 49 49 48 47 47 47 47 45 46 50 54 56 56 53 53 52 53 52
48 49 51 50 49 51 51 51 51 52 52 51 51 53 53 55 56 57 59 58 60 60 58 57 57 57 58 55 55 56 54 53 53 51 49 47 44 46 45 40 38 39 40 39 37 37 38 36 35 35 34 34 35 37 39 39 40 41 42 43 44 45 47 47 48 49 49 50 50 50 49 48 47 47 46 42 43 46 51 56 58 57 55 54 53 53
51 51 51 52 53 52 52 53 54 54 52 50 52 53 53 54 58 60 60 59 60 60 58 58 58 58 56 53 56 57 54 55 57 56 55 52 47 48 50 49 45 42 41 42 40 38 39 38 36 35 35 35 35 37 39 40 40 41 43 45 46 46 47 48 49 49 50 50 50 50 50 49 48 47 46 44 44 44 46 52 57 58 56 54 53 53
55 53 52 55 54 51 51 54 54 52 50 50 52 52 51 54 59 59 58 59 60 60 58 57 59 59 54 53 55 55 54 56 57 58 58 56 52 51 53 54 53 49 45 43 40 37 37 38 38 37 37 38 37 37 39 41 42 43 45 46 47 48 48 49 49 50 50 50 51 52 51 49 48 48 48 47 47 45 43 45 51 55 55 53 53 53
57 55 52 53 53 51 53 53 50 49 50 52 53 51 53 57 58 54 54 58 61 60 59 60 62 61 56 55 56 56 58 58 58 58 58 57 56 56 56 56 55 51 48 45 41 38 37 37 38 39 39 40 42 42 42 44 45 45 46 47 48 49 49 49 50 50 50 51 52 52 51 49 49 49 50 50 49 47 45 43 45 51 53 53 53 53
59 59 55 55 56 56 56 55 51 51 54 55 54 55 57 56 52 52 54 56 59 61 62 63 65 64 60 59 59 59 61 61 59 58 57 58 58 57 56 54 53 52 50 47 42 40 38 36 37 38 40 41 44 47 47 47 48 47 47 48 48 49 50 51 52 52 52 53 53 52 51 49 49 50 51 52 52 50 50 48 46 48 51 53 53 53
61 62 59 59 61 59 58 58 57 59 61 61 61 61 58 53 51 54 57 56 57 61 63 64 67 66 63 62 61 60 61 61 59 58 59 58 56 55 55 53 53 53 53 49 43 41 39 38 38 37 38 40 43 48 51 50 50 50 50 50 50 51 52 53 53 54 55 55 55 53 52 50 50 50 51 52 54 53 52 53 51 49 50 53 54 54
61 63 63 64 65 63 62 62 61 62 66 67 66 63 59 57 57 59 61 60 59 63 65 65 67 67 66 64 62 62 61 60 60 60 60 59 56 56 55 53 53 52 50 46 42 41 41 41 41 40 40 41 43 47 51 52 53 53 52 52 52 53 53 54 54 56 57 58 57 56 54 53 52 51 51 51 52 53 52 53 53 53 53 54 56 57
61 61 64 67 68 66 64 64 64 64 66 66 65 63 62 64 64 64 64 63 60 62 66 68 69 69 68 65 62 63 62 62 65 65 61 59 58 58 56 55 54 52 47 44 44 45 43 42 45 45 44 45 45 46 48 50 52 53 53 53 54 54 55 55 56 57 58 59 58 57 56 54 52 51 51 51 50 51 52 52 53 54 55 56 58 59
61 57 59 65 70 70 68 68 69 68 67 66 64 65 65 66 66 65 64 62 61 63 65 68 71 69 66 64 61 62 63 63 67 68 63 59 58 58 58 56 55 54 51 50 51 51 47 44 46 46 46 46 45 45 46 48 50 52 54 54 54 56 56 56 57 57 58 58 58 56 55 53 52 52 52 51 51 50 50 51 51 52 53 54 56 58
64 60 60 63 67 72 73 72 70 68 67 66 65 65 65 65 65 64 65 65 66 67 66 67 70 67 62 62 61 62 64 64 65 67 64 60 60 59 58 58 57 57 57 56 56 56 52 48 48 49 51 51 49 47 48 49 50 52 54 55 55 57 57 58 58 58 58 57 57 55 54 53 52 51 51 51 51 50 50 51 50 50 50 51 53 55
67 65 64 63 62 64 66 66 66 65 66 66 65 65 64 65 66 65 68 69 68 69 67 65 67 64 58 59 61 60 63 62 62 65 64 60 60 59 59 61 62 60 60 61 62 61 56 51 51 53 55 56 55 53 52 52 53 55 56 56 56 57 57 59 59 58 58 58 57 55 53 52 51 50 50 51 51 50 51 52 51 50 51 52 53 55
72 68 67 64 61 60 59 58 60 61 62 64 66 67 66 66 68 69 71 69 66 66 65 64 68 65 58 59 62 61 63 63 62 64 63 58 58 59 60 64 65 62 61 61 64 65 60 55 56 59 60 59 59 57 57 56 56 57 58 58 57 57 57 58 58 58 58 57 56 53 51 51 51 51 50 50 50 50 51 52 52 53 54 55 57 58
66 64 63 61 58 56 52 49 48 47 50 56 60 62 63 65 66 67 68 67 66 67 65 66 72 70 60 59 63 62 62 64 65 64 60 54 55 58 62 65 66 64 62 61 63 65 63 61 62 64 64 63 63 61 60 60 60 60 60 60 59 59 58 57 56 57 57 56 54 52 51 51 52 51 49 49 49 51 52 54 55 56 57 58 59 60
61 61 59 55 54 51 50 50 48 48 53 61 63 61 59 57 57 59 62 64 67 67 64 69 75 69 58 56 59 58 56 58 59 59 56 53 54 58 61 62 63 64 63 62 62 63 63 64 65 66 66 67 66 64 63 64 63 63 63 62 62 61 59 57 55 55 55 54 53 53 52 51 50 49 49 50 51 53 54 55 56 58 59 60 60 61
68 67 63 62 63 64 67 69 70 72 76 79 79 75 68 61 59 61 61 63 67 67 66 70 72 65 58 54 53 52 53 53 52 53 55 56 58 59 59 60 61 63 65 66 65 65 66 68 68 69 68 68 68 67 67 67 66 65 65 64 62 61 60 58 56 54 53 53 54 54 52 51 50 50 50 52 53 54 55 56 57 58 59 60 60 61
75 76 77 78 79 80 82 83 83 84 86 85 84 81 78 73 72 73 71 71 73 72 71 73 70 66 62 57 52 49 49 51 53 55 57 59 60 59 60 62 64 66 68 68 68 68 70 72 72 71 70 68 67 69 70 71 70 67 65 63 61 61 60 59 57 54 52 53 54 54 52 51 52 52 53 55 56 57 58 58 58 59 60 61 61 63
84 87 89 91 91 89 86 83 81 80 81 81 79 78 77 74 74 77 78 77 75 74 76 75 70 68 66 61 58 54 50 51 55 58 60 62 62 62 62 62 64 65 63 59 57 60 64 68 70 71 70 68 68 70 71 71 69 67 66 64 61 60 59 57 55 54 54 55 54 53 53 54 55 56 58 59 59 59 58 58 59 60 62 62 63 64
83 85 86 87 88 87 83 80 78 76 77 78 77 77 76 73 70 72 74 74 72 74 77 73 69 71 70 66 63 59 56 56 56 57 59 62 63 62 61 58 56 56 54 50 51 54 57 61 64 67 69 68 69 70 69 67 66 67 67 64 61 60 58 55 53 54 55 56 54 54 56 57 59 60 61 60 59 58 57 58 60 62 63 64 64 64
77 77 77 77 79 79 77 75 74 74 75 76 76 75 73 70 67 68 71 72 72 74 75 71 72 75 72 67 65 61 59 60 58 56 57 59 58 56 55 53 50 50 53 56 60 62 63 64 66 66 67 67 68 69 69 68 67 68 68 64 61 58 55 53 53 55 56 56 56 57 58 59 61 61 61 60 58 58 59 60 61 63 64 63 63 62
72 72 70 69 72 74 71 69 68 67 67 66 65 65 65 65 68 71 73 71 71 74 73 72 76 78 72 69 67 63 59 58 58 56 54 53 52 52 54 55 53 56 63 68 70 70 70 69 69 68 66 67 68 68 68 67 68 69 68 62 57 54 53 54 55 56 56 57 58 58 58 59 60 61 61 60 60 60 61 62 63 63 63 63 63 62
69 70 68 67 70 73 70 67 67 64 62 63 61 58 58 62 66 67 65 62 64 68 69 71 76 77 73 69 67 64 62 60 59 57 56 56 59 62 66 66 65 68 73 75 71 68 67 67 65 64 66 68 69 69 68 67 67 67 63 58 55 56 58 59 59 58 59 59 59 58 58 59 61 61 62 61 62 62 63 63 64 64 64 65 65 65
71 72 72 72 75 77 74 72 72 68 69 71 65 57 57 60 61 61 60 62 65 70 73 76 79 77 72 70 69 69 69 68 68 67 68 70 73 74 75 74 73 75 79 79 72 63 61 62 61 61 64 66 67 69 68 66 64 62 60 59 58 59 60 61 61 61 60 60 59 58 59 60 62 63 63 63 63 64 64 64 65 65 66 67 65 64
75 75 75 74 76 77 75 74 75 76 79 79 70 63 63 64 64 66 69 72 74 75 77 79 78 74 69 68 69 70 70 72 73 74 73 73 74 74 74 73 72 74 76 74 66 58 59 61 60 60 61 62 65 68 67 66 64 63 64 63 60 58 59 60 61 61 60 60 59 59 60 62 64 65 65 65 65 65 65 65 66 67 66 64 62 59
72 71 72 73 76 79 77 75 78 83 87 84 78 74 75 74 75 77 80 81 81 79 77 77 74 69 65 65 66 67 67 67 67 67 66 65 66 67 68 67 66 67 65 60 56 56 60 62 61 60 61 61 63 66 67 66 66 67 69 68 63 60 61 61 61 62 61 61 61 62 63 65 66 67 67 67 67 66 66 66 66 65 63 59 57 55
75 75 75 75 75 75 74 76 83 88 88 86 84 83 82 81 80 81 83 82 78 74 71 71 72 70 69 68 66 63 62 61 62 62 60 60 61 61 62 62 61 60 58 55 55 59 62 64 65 65 63 61 61 65 67 68 70 71 72 70 63 60 61 62 63 62 62 63 64 65 66 67 68 69 69 68 67 66 66 66 64 62 59 56 54 52
80 81 81 78 77 78 80 84 88 89 89 89 88 84 80 76 73 72 75 75 70 65 64 66 70 71 69 66 63 61 60 61 62 62 60 60 61 60 61 62 62 62 62 61 61 63 65 67 68 68 68 64 60 63 67 71 72 72 71 67 63 60 62 63 62 62 63 65 66 67 67 68 69 68 67 66 66 66 65 63 62 60 58 57 55 52
76 79 81 83 84 82 79 78 78 78 79 79 77 73 70 69 66 65 68 70 68 66 64 65 69 71 68 66 66 65 63 62 61 59 58 60 62 62 63 63 63 63 64 64 64 65 67 70 72 74 74 68 61 62 67 71 71 69 67 65 64 63 64 65 64 65 67 68 68 68 68 68 67 66 66 65 64 63 61 61 60 60 59 58 57 55
75 75 76 78 81 77 70 67 70 71 71 70 70 70 69 68 66 63 65 71 73 72 70 70 73 74 72 71 70 67 63 62 61 58 56 56 58 60 62 63 63 64 64 65 66 67 69 72 74 75 74 69 63 62 66 68 67 65 63 63 64 64 65 65 66 68 70 71 71 71 70 69 68 68 66 63 61 59 59 60 61 61 61 60 59 58
81 81 79 78 79 78 76 77 80 81 81 82 81 78 76 75 72 69 72 78 79 78 76 74 73 73 73 74 73 71 68 68 67 64 61 58 56 56 56 58 60 64 66 67 68 69 71 73 74 74 73 69 64 63 65 66 64 62 61 62 63 65 67 68 71 73 74 74 74 74 73 72 71 69 64 59 58 59 61 62 63 64 63 61 60 60
87 87 86 85 84 83 82 83 84 82 81 82 81 77 76 76 74 73 78 83 82 80 79 77 75 76 76 77 78 77 77 76 74 70 66 63 61 59 56 56 57 60 63 66 68 70 72 74 74 73 72 67 62 61 63 65 64 63 62 62 63 66 67 70 73 75 76 76 75 74 73 72 71 67 62 59 60 62 63 65 66 66 63 60 60 61
87 88 87 87 87 86 83 82 81 75 67 64 66 71 75 75 73 73 76 78 78 78 79 78 79 79 79 79 81 80 79 78 77 73 69 66 64 60 58 57 57 57 58 60 61 64 69 72 73 70 68 66 63 63 65 67 66 64 63 61 62 63 64 65 67 71 74 74 73 71 71 70 68 64 61 61 63 64 65 67 65 62 60 59 60 62
85 87 88 87 87 87 85 84 84 82 75 68 63 62 62 64 70 74 76 77 78 79 80 80 81 82 82 81 80 78 77 76 75 73 69 65 64 63 62 62 61 59 58 59 59 60 62 67 69 68 67 67 67 68 68 66 63 61 58 57 58 59 61 63 65 67 70 71 69 68 67 67 65 62 60 62 65 67 67 67 63 59 58 60 62 64
82 84 86 86 84 82 83 85 86 87 85 80 76 71 64 62 64 66 69 72 76 78 80 79 79 78 78 77 76 76 77 77 76 73 70 68 69 70 69 68 66 64 63 63 62 61 62 64 66 67 67 67 68 69 66 61 59 57 55 54 56 57 59 62 64 65 66 67 67 66 65 66 65 62 61 64 67 68 68 66 63 61 61 63 65 67
80 79 80 81 80 77 76 80 85 86 84 83 84 86 85 82 79 75 73 73 74 76 77 76 76 77 78 80 81 81 81 80 79 77 75 73 72 71 70 69 67 66 65 65 64 65 65 65 64 64 63 64 65 65 63 61 60 58 55 54 55 56 59 62 64 65 66 67 67 67 67 67 67 65 65 67 68 69 69 68 65 62 62 63 65 68
77 78 78 80 83 82 81 82 83 83 82 81 81 83 86 90 92 90 88 86 85 85 85 86 87 88 88 87 87 85 84 83 82 80 77 74 72 71 71 71 70 68 67 67 67 68 67 65 64 64 64 65 65 66 65 64 62 60 58 57 56 56 58 61 64 66 66 67 67 68 69 70 70 71 71 71 71 71 72 71 68 66 64 65 66 69
72 74 77 79 82 84 85 85 83 83 83 81 78 78 81 84 87 90 92 93 92 91 91 91 92 92 92 91 90 89 87 84 81 79 78 77 76 75 74 73 73 71 70 69 68 68 67 67 68 69 68 67 68 70 70 68 65 62 60 59 57 56 57 60 63 65 66 66 67 69 71 74 76 77 77 75 73 74 74 74 72 70 69 69 70 73
66 69 73 75 78 79 80 81 81 83 84 83 82 83 83 82 83 85 88 90 92 91 89 87 86 87 88 88 89 89 87 83 81 80 79 78 77 77 78 77 75 71 70 69 69 69 70 71 72 73 72 70 70 72 73 71 68 65 62 58 56 57 57 60 63 65 66 67 67 68 72 76 79 80 80 78 76 76 77 77 77 75 73 73 74 76
61 64 67 69 72 75 76 76 76 79 81 82 84 89 90 89 89 89 89 90 91 90 88 86 85 84 83 81 81 81 80 79 78 77 78 78 78 79 80 79 75 72 72 74 75 75 76 76 76 76 76 74 72 73 75 73 70 67 63 60 58 59 60 61 64 66 68 67 67 69 72 76 78 80 81 81 80 78 78 78 79 78 77 76 77 79
56 59 61 62 65 70 71 72 72 75 77 78 80 85 90 92 94 96 96 97 98 96 94 92 89 88 88 87 84 80 76 75 77 80 82 83 82 80 79 76 75 75 77 80 81 81 80 80 79 79 79 78 77 76 77 76 74 71 67 64 63 65 65 66 66 68 69 69 69 70 71 74 78 81 82 83 82 81 80 79 78 78 78 79 81 83
52 54 55 57 61 64 66 67 69 70 72 74 76 80 84 88 92 96 98 101 103 104 104 103 100 98 97 97 96 93 86 81 83 87 89 89 86 82 79 76 75 75 77 80 83 84 85 84 83 81 80 80 80 79 79 78 77 75 72 68 67 68 69 69 69 70 71 70 70 71 72 74 78 82 84 84 84 83 84 83 82 81 81 82 84 86
Wind_Direction
283 282 281 286 295 298 292 287 287 288 287 287 286 286 287 288 288 291 292 290 290 289 288 289 289 289 292 294 293 290 289 289 291 289 288 290 290 290 292 292 287 282 281 280 280 282 283 286 290 291 289 285 281 279 279 280 279 276 276 276 277 277 278 278 279 279 280 281 282 284 286 287 286 286 287 288 289 289 289 289 288 288 289 288 287 286
282 281 283 292 297 293 287 285 286 286 285 285 285 286 286 286 288 290 288 287 287 285 285 287 287 288 291 292 290 289 288 289 290 288 288 290 287 288 290 289 288 287 286 284 284 286 285 286 290 292 291 287 282 278 276 277 277 275 274 275 276 278 279 278 278 279 280 280 281 284 286 288 288 287 288 289 289 289 289 289 288 288 290 290 289 288
282 280 286 292 291 287 285 286 285 284 283 283 284 286 285 286 289 288 288 289 287 284 285 286 287 287 289 288 287 288 290 290 289 288 289 288 286 288 291 292 291 290 289 288 288 289 288 287 290 292 290 286 282 278 276 277 276 275 275 276 278 279 279 278 278 278 278 279 281 285 287 288 289 289 290 290 291 290 290 289 289 289 290 291 290 289
280 282 287 287 285 284 284 285 285 283 282 282 284 285 285 288 290 288 289 290 286 285 285 286 286 285 286 287 287 289 290 290 291 291 288 286 285 288 290 291 289 287 287 287 287 287 287 289 291 291 289 286 281 279 279 279 278 277 277 278 279 278 277 277 277 277 278 280 283 286 288 289 291 292 293 294 293 291 290 289 289 289 290 290 290 289
277 280 283 282 282 283 283 284 284 282 281 282 283 283 285 288 289 288 289 289 286 284 284 287 286 284 285 287 288 289 289 290 294 293 289 286 287 287 287 288 286 284 284 285 286 285 287 292 292 290 288 285 280 279 280 280 279 278 278 278 277 277 277 277 277 278 281 283 286 288 289 291 293 294 295 295 293 292 291 290 289 289 289 290 290 289
274 276 279 279 281 283 283 283 282 281 283 283 282 281 284 285 285 285 287 287 285 284 284 286 285 284 286 287 289 291 289 290 293 291 288 289 290 290 287 285 284 283 284 286 288 288 289 292 293 290 287 283 280 278 278 279 279 278 277 277 277 277 277 278 280 282 284 285 287 289 290 291 293 294 294 294 292 292 291 290 290 290 290 290 290 290
274 276 276 276 279 281 280 280 281 284 284 282 282 282 281 280 281 282 282 283 283 284 285 284 283 285 286 288 292 294 291 290 289 289 292 293 292 291 290 287 285 283 284 286 288 288 288 292 294 292 288 283 279 277 276 277 276 276 276 276 277 277 278 280 281 283 284 286 287 288 289 291 292 292 292 292 292 291 291 290 289 289 289 290 291 291
276 277 275 274 275 275 276 280 285 285 281 281 284 284 281 279 278 278 279 279 280 282 283 283 282 285 288 292 296 294 292 291 292 294 295 295 293 292 292 291 289 286 285 286 287 287 287 291 293 292 290 285 279 277 276 275 274 275 276 276 277 277 278 279 280 281 283 285 286 287 288 289 289 290 291 291 291 290 288 287 287 287 288 290 291 291
276 275 274 274 273 273 276 281 282 280 279 282 284 282 281 280 280 279 278 278 279 280 281 281 281 284 290 296 296 292 291 293 298 298 297 297 296 294 294 294 293 291 288 287 287 287 289 291 290 290 291 287 281 278 276 275 275 276 277 278 278 278 278 278 279 281 282 283 284 285 285 286 287 287 289 290 289 288 286 284 284 285 287 288 289 289
273 274 273 272 273 276 281 281 279 278 280 281 281 281 281 281 281 281 279 279 278 278 279 281 282 285 292 294 291 288 290 295 298 297 298 299 296 294 295 296 295 293 290 288 288 290 293 292 288 288 288 284 280 278 276 276 277 278 279 279 279 279 279 279 280 280 281 281 282 282 282 283 284 285 287 288 288 287 284 283 283 284 285 286 286 286
274 273 271 272 275 279 281 280 280 280 281 281 281 281 281 280 280 279 278 278 276 276 278 281 284 288 291 291 290 289 292 294 295 296 298 298 295 295 296 294 292 292 292 291 290 291 294 294 289 286 284 280 276 274 273 273 275 276 278 279 279 279 279 279 279 279 280 280 280 281 281 282 282 282 284 285 287 287 284 282 282 282 283 283 283 283
273 271 271 274 276 277 278 279 280 280 281 283 283 282 280 279 278 276 275 274 274 276 281 283 285 286 285 286 289 291 294 295 296 296 295 294 295 297 297 294 290 290 293 294 294 295 296 296 291 285 283 278 272 270 269 269 271 273 275 276 276 276 276 276 276 277 278 279 280 281 281 281 280 280 280 280 284 284 283 282 281 280 280 280 280 280
273 271 272 272 272 275 279 281 280 280 282 282 280 279 278 277 276 274 274 273 274 278 282 285 286 283 281 284 287 289 293 294 295 295 294 295 297 298 298 296 294 292 292 293 294 296 298 298 293 287 284 279 272 267 266 267 269 270 272 273 273 272 272 273 274 276 277 279 281 282 282 282 280 279 277 276 279 280 279 281 281 279 278 277 277 277
274 271 271 272 274 278 281 281 280 279 279 277 276 275 274 274 274 273 274 276 277 279 281 282 280 279 283 287 288 290 291 290 290 292 294 298 299 299 298 297 297 298 297 294 294 295 295 295 292 289 287 282 276 270 266 265 266 268 270 270 269 269 269 271 273 275 277 280 281 282 283 282 280 278 276 276 278 275 275 281 282 280 278 276 275 275
275 273 272 275 278 279 280 281 280 279 276 273 273 272 270 271 272 273 276 279 279 278 277 275 274 277 283 286 287 288 288 287 289 292 295 297 298 297 296 296 296 298 298 297 297 297 294 290 286 286 287 283 279 275 270 267 266 267 268 268 267 268 269 270 272 275 278 279 281 282 282 282 279 277 276 277 278 275 273 278 282 281 279 277 275 274
277 275 274 276 277 277 277 279 278 277 275 274 273 271 271 273 274 274 275 275 276 276 275 275 275 277 281 282 282 284 284 286 289 291 293 294 294 294 294 294 295 296 297 297 298 297 294 288 282 281 283 282 279 276 273 270 269 269 268 267 266 267 268 270 273 276 278 278 280 281 281 281 279 276 275 276 278 278 275 274 278 280 280 278 277 276
278 277 276 276 276 275 276 278 277 276 275 275 274 273 275 277 275 273 273 272 273 274 273 274 276 277 278 279 279 280 282 284 287 288 288 289 291 292 293 293 294 294 294 294 295 294 292 289 284 280 279 278 275 274 272 271 271 271 271 269 268 268 269 271 274 276 278 279 280 281 281 281 280 279 278 277 278 279 278 275 275 277 279 279 278 278
280 278 276 274 274 275 276 277 277 276 275 274 273 275 277 275 273 273 275 275 274 274 272 271 272 274 275 276 278 280 282 285 285 284 285 287 289 290 291 293 294 292 290 289 289 289 289 288 286 282 278 275 272 270 270 271 272 273 273 272 271 271 272 274 276 277 279 280 281 282 283 283 284 283 282 280 280 280 279 278 278 278 278 279 278 279
280 276 274 274 274 275 276 276 276 275 276 277 278 278 276 275 274 274 275 276 276 275 273 269 268 269 271 273 276 280 282 284 284 283 284 286 287 288 290 291 291 290 288 287 286 286 287 287 287 283 276 272 268 265 267 269 271 273 273 273 273 274 275 276 276 277 278 279 280 282 284 285 286 285 284 283 282 281 280 280 280 279 278 278 278 278
279 271 271 275 277 277 276 275 275 276 278 280 280 278 276 275 274 272 271 272 273 272 272 269 267 268 272 273 274 276 279 282 284 284 285 286 288 289 291 290 289 289 289 287 286 286 287 288 287 281 274 269 265 263 265 266 268 271 272 273 274 275 276 276 276 277 277 279 281 282 284 285 284 284 283 283 283 283 282 281 280 279 279 278 277 278
279 271 268 272 276 277 277 277 277 277 277 276 274 274 275 274 272 270 268 268 269 269 270 270 270 271 273 273 272 272 274 277 281 283 284 286 288 288 288 288 287 288 288 286 285 286 287 288 285 279 273 271 269 269 270 268 268 269 270 272 273 274 275 276 276 276 277 279 280 281 282 281 281 281 282 283 284 284 283 282 282 281 280 279 278 278
277 273 270 269 268 268 271 272 272 271 270 269 269 270 271 272 270 267 266 268 270 268 268 270 271 271 270 269 270 270 272 276 280 282 283 284 285 285 285 284 283 283 284 285 286 287 289 289 286 281 275 272 272 274 275 273 271 271 271 270 270 271 271 272 273 274 275 276 277 278 278 278 279 280 281 282 283 283 283 283 283 282 281 281 280 279
278 277 274 270 266 265 266 269 270 270 270 270 269 268 269 269 268 265 264 267 268 266 267 268 268 270 271 271 272 274 277 279 280 280 281 282 284 285 283 281 281 280 280 283 286 288 290 289 286 282 277 273 273 274 276 277 276 274 273 272 271 270 269 269 270 272 273 274 275 275 276 277 278 280 281 282 282 282 282 282 282 282 282 282 282 281
279 279 275 273 273 272 272 273 274 275 277 277 277 276 274 272 271 268 266 266 264 263 266 266 266 271 276 275 275 276 278 280 280 280 280 281 282 282 280 279 280 280 281 284 287 289 290 288 285 282 279 276 274 274 276 278 278 277 277 277 277 275 273 271 270 271 272 272 272 273 274 276 278 279 280 280 281 281 281 282 282 282 282 282 282 282
282 281 276 273 273 272 272 273 275 277 281 283 283 284 281 278 277 275 273 271 268 268 271 270 270 276 281 278 277 278 278 279 281 281 280 278 277 275 274 274 275 277 281 283 284 284 285 285 283 280 278 277 275 274 276 277 278 279 280 280 280 279 277 275 273 272 271 270 271 272 274 276 276 277 278 279 281 282 282 282 282 282 282 282 282 282
281 278 273 269 268 269 272 275 277 279 281 282 282 283 282 279 278 279 278 275 274 278 280 277 278 285 287 283 283 284 281 279 278 278 275 273 273 272 271 271 271 273 276 279 280 281 281 280 279 277 276 275 274 274 276 278 279 280 281 281 281 279 278 277 275 273 271 271 272 274 276 276 275 276 278 281 283 284 283 283 283 282 282 282 283 284
277 275 273 273 272 273 275 277 278 279 280 281 281 282 281 279 276 276 275 274 278 282 280 280 286 290 288 288 290 290 286 280 274 270 269 270 272 270 269 270 272 274 277 280 282 281 279 277 276 275 275 273 272 273 276 278 278 280 281 281 279 277 277 276 274 272 271 272 274 276 275 274 274 277 280 284 285 285 285 285 284 284 284 284 285 285
277 276 276 276 277 278 279 280 280 280 280 281 281 280 280 279 275 271 270 274 279 279 279 284 287 285 284 289 291 292 291 286 276 269 267 270 272 271 268 268 272 276 279 280 280 279 278 277 275 274 274 273 272 272 274 276 277 279 281 280 277 274 273 272 270 269 270 271 275 277 275 274 276 279 282 285 286 285 286 286 286 286 286 287 287 287
277 277 276 277 278 278 279 280 281 281 280 281 281 280 280 278 274 269 270 275 278 277 279 283 281 280 284 289 290 291 290 286 279 273 270 271 272 272 270 269 272 275 275 274 277 280 282 282 278 274 274 274 274 275 276 277 279 280 280 278 274 271 270 269 267 267 269 273 277 280 278 277 279 281 284 287 287 287 287 287 287 287 287 287 287 287
276 276 276 277 277 278 278 279 279 280 279 280 280 279 278 275 271 269 272 276 277 275 277 278 277 279 284 287 291 292 287 281 277 273 271 272 274 272 268 268 269 271 271 274 279 283 285 285 283 280 279 277 276 276 276 276 278 279 278 275 271 269 269 269 268 269 273 277 281 282 281 280 281 283 286 288 287 287 287 286 286 285 285 286 286 286
275 275 278 279 279 279 279 280 280 279 278 278 277 275 272 270 271 273 276 277 277 275 275 277 277 278 284 290 293 290 283 277 273 269 266 267 271 271 269 269 269 269 273 277 281 284 286 286 284 282 280 278 277 276 274 273 273 274 273 271 269 269 272 273 273 276 279 282 283 284 282 281 281 283 285 286 285 285 284 283 283 283 284 285 285 285
271 274 277 279 277 277 278 280 281 279 278 278 275 271 270 272 276 278 278 277 277 277 278 278 277 281 288 293 289 283 278 274 269 266 265 266 270 272 271 270 268 269 274 279 282 284 284 281 278 275 274 274 275 275 271 268 268 268 269 269 270 272 275 276 278 281 283 284 284 283 281 279 279 281 282 282 282 282 281 281 282 283 284 286 286 287
270 273 275 275 276 277 279 280 280 278 276 275 275 274 275 276 276 275 273 274 276 278 280 279 281 285 288 286 283 280 277 274 271 271 271 272 272 271 270 269 267 267 271 276 280 281 278 273 268 265 264 265 266 267 265 264 264 264 265 268 272 275 276 278 280 281 282 283 283 281 279 276 276 278 279 279 279 279 280 280 281 283 286 288 289 289
270 271 272 273 276 278 280 280 279 276 274 274 275 275 275 275 274 274 275 278 280 281 281 282 284 284 282 278 276 275 273 273 273 273 273 273 271 269 268 267 266 266 269 272 276 275 270 266 262 261 263 263 261 261 261 262 263 264 266 269 275 278 280 281 282 282 283 283 282 280 278 276 275 276 277 277 278 278 279 280 282 285 287 289 289 288
266 267 269 272 275 278 278 277 275 273 274 277 277 276 277 277 277 278 280 282 283 284 284 284 284 282 278 274 272 271 272 273 273 272 270 270 269 269 268 266 265 265 267 269 268 265 261 260 260 263 267 268 266 264 264 265 266 267 270 273 277 280 281 282 283 283 282 281 280 279 277 275 275 275 276 276 277 278 280 282 284 285 287 288 287 285
264 266 268 270 271 272 272 271 271 274 277 279 278 278 281 282 282 283 283 283 284 285 284 281 280 279 278 276 275 273 272 271 268 267 266 266 265 265 264 263 261 260 259 259 257 255 255 257 260 263 266 267 269 269 268 268 268 270 272 274 277 280 280 281 281 280 279 279 278 278 277 275 275 274 274 275 277 279 281 283 284 286 287 287 284 282
264 265 266 265 265 266 269 272 274 277 279 278 278 280 281 282 283 284 283 283 284 283 280 279 279 278 276 276 275 273 272 270 267 265 262 260 259 258 259 259 259 257 255 253 251 249 249 252 256 260 262 263 266 268 268 269 269 270 270 272 276 280 280 280 280 279 278 277 277 277 275 274 273 273 273 275 278 280 282 283 284 286 287 285 283 281
262 263 263 263 264 266 270 274 276 278 277 278 279 280 280 281 283 283 282 282 280 277 277 279 279 278 276 276 276 275 276 274 272 269 264 261 260 260 260 259 258 257 255 253 251 249 249 250 253 255 257 260 262 263 266 268 268 268 269 271 277 282 282 280 280 279 278 278 277 276 274 273 272 273 275 277 279 280 281 282 284 286 287 285 283 280
258 258 259 261 263 264 265 269 273 275 275 275 277 277 278 280 281 280 279 278 277 277 279 279 277 277 277 277 277 277 277 276 275 273 271 268 267 265 263 260 258 256 254 253 253 252 252 252 254 256 258 261 262 262 263 266 267 269 273 277 281 283 281 279 278 277 277 278 277 276 275 274 274 275 277 277 277 278 280 282 284 286 286 285 282 280
258 258 258 260 261 262 262 264 267 270 272 273 275 276 276 276 276 276 277 277 277 278 278 277 276 275 276 277 277 278 278 276 276 276 275 272 269 266 264 261 258 256 257 257 257 257 256 255 256 257 260 263 263 261 263 267 270 273 276 279 281 280 278 276 275 275 276 276 276 275 275 275 275 276 276 275 275 278 280 282 283 284 284 283 280 279
263 262 261 261 261 261 261 263 266 269 272 274 275 274 273 273 274 274 273 272 273 273 271 271 271 272 273 274 275 276 277 277 277 277 276 274 271 267 264 262 259 257 258 258 259 260 260 259 258 259 260 261 261 261 263 268 272 273 275 276 278 277 276 275 275 275 275 275 275 275 274 274 274 275 274 273 274 277 279 281 282 282 281 280 279 279
267 266 265 264 263 262 262 263 264 265 267 270 273 274 274 272 270 268 267 268 268 268 267 268 268 268 270 272 273 274 274 275 277 277 276 274 270 266 263 263 261 259 257 256 256 257 258 258 259 258 258 258 258 261 265 267 268 270 271 272 274 276 276 277 277 276 276 276 275 275 273 272 273 273 273 273 274 276 278 279 280 279 278 278 279 280
267 267 267 267 267 266 265 264 263 261 259 260 264 269 271 268 263 260 260 262 263 263 265 265 266 266 268 269 270 271 272 273 275 275 274 271 268 266 265 264 262 259 257 257 257 257 257 258 257 258 259 259 261 265 267 265 265 267 268 269 273 276 278 279 278 277 276 276 274 273 271 271 272 271 271 273 275 275 276 276 275 276 278 280 281 282
265 266 267 268 267 267 266 264 263 261 260 258 257 257 259 259 257 255 255 256 255 255 256 258 260 262 263 264 265 268 271 272 273 271 270 268 267 268 267 265 261 259 258 258 259 260 261 261 260 260 261 262 264 265 264 262 263 266 268 271 274 276 277 277 276 275 275 274 272 270 270 270 269 266 266 271 273 273 273 272 271 273 277 281 283 283
264 263 264 264 263 261 260 260 261 262 262 261 258 256 254 253 254 255 256 258 257 255 254 255 258 261 263 265 267 268 269 269 269 269 267 266 266 267 266 263 260 258 258 259 261 263 264 263 262 262 264 265 264 260 257 259 262 266 269 272 274 274 274 274 273 272 271 270 269 269 270 270 267 263 264 269 271 270 269 267 266 269 275 279 282 283
263 263 261 261 260 258 257 258 260 260 260 261 260 258 255 253 252 254 256 258 260 260 259 260 262 263 264 265 265 265 265 266 265 265 264 264 265 266 264 261 259 258 258 261 264 265 264 262 262 262 264 264 260 256 255 259 263 267 270 272 272 271 271 271 270 270 269 268 269 271 273 273 269 265 265 267 268 267 265 263 263 268 272 276 280 282
262 263 262 261 261 261 261 260 259 257 257 258 257 256 256 255 254 254 255 257 258 259 259 259 260 261 262 262 261 261 261 261 259 259 260 262 265 266 264 261 259 259 259 262 263 262 262 263 264 264 264 262 256 253 256 259 263 267 270 270 268 268 268 268 268 268 268 269 272 275 276 275 272 267 266 266 266 264 262 261 262 267 272 275 278 281
264 263 262 262 262 263 263 263 260 257 257 257 255 253 253 254 254 254 254 253 254 254 254 254 254 254 255 255 255 255 254 253 254 256 258 260 262 263 263 261 258 257 259 262 263 262 262 264 264 264 263 260 255 252 254 257 261 266 268 267 265 265 265 265 265 265 267 270 273 276 277 276 273 269 266 265 265 263 261 260 262 266 270 274 276 278
270 267 265 265 264 262 262 263 262 260 258 257 256 255 254 253 253 253 252 252 253 253 253 253 252 252 252 251 250 249 247 246 249 253 256 258 258 256 256 256 254 256 260 264 265 264 263 262 262 262 261 259 255 253 253 255 259 263 264 263 262 261 261 262 262 264 266 269 272 276 278 278 275 270 267 267 266 263 262 261 262 265 269 272 275 277
275 272 271 270 268 266 264 264 265 263 261 258 257 257 256 255 254 253 253 253 254 255 256 256 256 256 256 256 255 253 248 246 250 254 258 260 257 250 247 249 252 256 263 267 267 265 262 259 258 259 260 259 256 253 252 253 257 260 259 258 258 258 258 259 261 263 265 268 272 275 277 277 275 272 270 269 268 266 264 262 261 263 267 271 274 276
277 275 274 274 273 272 269 268 269 268 266 262 259 258 258 257 256 256 255 255 254 255 255 256 256 257 258 258 260 259 256 253 255 257 259 258 253 246 242 244 249 255 261 264 264 263 260 256 254 255 257 258 257 255 253 253 256 258 257 256 256 256 256 258 260 262 264 268 272 275 276 276 275 273 271 270 268 267 266 264 262 263 266 270 272 275
Height
5813 5808 5804 5808 5817 5818 5814 5809 5806 5805 5804 5802 5800 5799 5798 5795 5794 5801 5804 5802 5799 5788 5784 5787 5783 5781 5786 5791 5795 5795 5795 5795 5795 5793 5791 5791 5790 5789 5789 5789 5787 5786 5787 5787 5786 5785 5784 5782 5781 5780 5779 5778 5778 5777 5776 5776 5775 5775 5774 5773 5773 5773 5772 5772 5772 5772 5772 5772 5772 5771 5771 5770 5770 5770 5769 5768 5767 5766 5765 5764 5764 5764 5764 5763 5763 5762
5807 5801 5801 5809 5813 5811 5807 5805 5803 5801 5799 5796 5794 5794 5793 5791 5791 5795 5797 5798 5796 5784 5779 5782 5777 5774 5780 5784 5788 5789 5789 5790 5791 5789 5788 5788 5785 5784 5785 5784 5782 5781 5782 5782 5781 5780 5779 5778 5777 5776 5775 5773 5772 5772 5771 5770 5770 5770 5769 5769 5768 5768 5768 5768 5768 5767 5767 5767 5766 5766 5765 5764 5764 5764 5763 5762 5761 5760 5760 5759 5758 5758 5758 5757 5757 5756
5799 5795 5801 5807 5806 5804 5802 5801 5799 5796 5793 5790 5789 5789 5787 5787 5787 5787 5790 5793 5790 5779 5775 5776 5770 5766 5772 5777 5781 5783 5783 5785 5786 5785 5784 5783 5781 5780 5781 5780 5778 5777 5777 5776 5775 5774 5773 5773 5772 5771 5770 5768 5767 5766 5766 5765 5765 5765 5764 5764 5764 5763 5763 5763 5763 5762 5762 5761 5761 5760 5760 5759 5758 5758 5757 5756 5755 5755 5754 5753 5752 5752 5752 5752 5751 5750
5791 5792 5800 5801 5798 5798 5797 5796 5794 5791 5788 5786 5785 5783 5780 5784 5783 5779 5783 5786 5782 5775 5770 5770 5763 5758 5763 5769 5774 5778 5778 5778 5781 5781 5780 5778 5777 5777 5776 5776 5774 5773 5772 5771 5770 5769 5768 5767 5766 5766 5765 5763 5762 5761 5761 5760 5760 5760 5759 5759 5759 5758 5758 5758 5757 5757 5756 5756 5756 5755 5754 5753 5753 5752 5751 5750 5750 5749 5748 5747 5747 5747 5746 5745 5745 5744
5786 5790 5794 5792 5791 5792 5792 5791 5790 5786 5784 5782 5782 5779 5776 5779 5778 5773 5775 5776 5773 5769 5767 5765 5755 5748 5757 5762 5765 5773 5772 5772 5776 5775 5775 5774 5773 5773 5773 5771 5769 5768 5768 5767 5765 5764 5763 5762 5760 5760 5759 5758 5757 5756 5756 5755 5755 5754 5754 5754 5753 5753 5752 5752 5752 5751 5751 5751 5750 5749 5749 5748 5747 5746 5745 5745 5744 5742 5742 5741 5740 5741 5740 5739 5739 5738
5781 5788 5789 5785 5784 5785 5786 5785 5784 5781 5780 5778 5776 5777 5776 5775 5772 5770 5770 5767 5763 5760 5762 5763 5748 5739 5749 5755 5758 5766 5766 5767 5771 5770 5770 5770 5768 5768 5769 5767 5765 5764 5763 5762 5760 5759 5758 5757 5755 5754 5753 5752 5751 5751 5750 5750 5749 5749 5749 5748 5747 5747 5746 5746 5746 5745 5745 5745 5744 5744 5743 5742 5741 5741 5740 5739 5738 5736 5736 5735 5734 5734 5734 5733 5733 5732
5775 5784 5784 5781 5780 5779 5778 5777 5779 5779 5775 5771 5770 5774 5774 5770 5768 5767 5766 5762 5757 5753 5754 5754 5746 5735 5739 5747 5752 5756 5757 5760 5765 5765 5765 5765 5763 5762 5762 5762 5761 5760 5758 5757 5755 5754 5753 5751 5750 5749 5748 5747 5746 5746 5745 5744 5744 5743 5743 5743 5742 5742 5741 5741 5740 5740 5740 5739 5739 5738 5738 5737 5736 5735 5734 5733 5732 5731 5730 5729 5728 5727 5727 5727 5726 5726
5773 5778 5777 5776 5775 5772 5771 5772 5775 5773 5768 5765 5767 5768 5767 5765 5764 5762 5761 5758 5753 5751 5746 5743 5741 5734 5731 5740 5748 5747 5746 5751 5756 5760 5760 5759 5757 5756 5756 5755 5755 5755 5754 5752 5750 5748 5747 5746 5745 5744 5743 5743 5742 5741 5740 5739 5739 5738 5738 5738 5737 5737 5736 5735 5735 5734 5734 5734 5733 5733 5732 5731 5731 5730 5728 5727 5726 5725 5724 5723 5722 5721 5721 5720 5720 5719
5769 5770 5769 5769 5767 5765 5767 5770 5769 5765 5761 5762 5763 5761 5759 5759 5758 5757 5755 5753 5749 5747 5740 5735 5737 5735 5728 5733 5741 5738 5736 5742 5747 5751 5753 5752 5751 5750 5751 5749 5748 5749 5748 5747 5745 5743 5742 5741 5740 5739 5738 5739 5738 5737 5736 5736 5735 5734 5734 5733 5732 5732 5731 5730 5730 5729 5729 5728 5728 5727 5727 5726 5725 5724 5723 5722 5721 5719 5718 5717 5716 5715 5714 5714 5713 5712
5763 5763 5763 5761 5758 5760 5763 5764 5761 5759 5757 5758 5757 5755 5754 5753 5751 5751 5749 5747 5745 5739 5734 5731 5733 5735 5728 5725 5732 5731 5732 5737 5740 5742 5744 5745 5743 5742 5745 5745 5741 5741 5742 5741 5740 5739 5738 5737 5735 5735 5734 5734 5733 5733 5732 5731 5731 5730 5729 5728 5727 5727 5726 5725 5724 5724 5723 5723 5723 5722 5722 5721 5720 5719 5719 5718 5716 5714 5712 5710 5709 5709 5708 5707 5706 5706
5758 5758 5755 5753 5754 5755 5755 5755 5754 5753 5751 5751 5751 5749 5748 5746 5744 5744 5741 5740 5738 5730 5730 5731 5732 5736 5726 5714 5719 5725 5728 5732 5732 5735 5737 5737 5736 5735 5738 5741 5737 5734 5734 5734 5734 5733 5733 5732 5731 5730 5729 5729 5728 5727 5727 5726 5726 5725 5724 5723 5723 5722 5721 5720 5719 5718 5718 5717 5717 5717 5717 5716 5715 5714 5714 5713 5711 5709 5706 5704 5703 5702 5701 5701 5700 5699
5751 5749 5749 5749 5749 5748 5748 5748 5747 5746 5746 5745 5745 5743 5741 5739 5737 5735 5732 5732 5730 5724 5726 5729 5731 5733 5722 5710 5713 5718 5721 5724 5724 5726 5728 5729 5730 5728 5728 5732 5732 5729 5727 5726 5726 5726 5725 5725 5725 5724 5723 5723 5723 5722 5721 5721 5720 5719 5719 5718 5717 5716 5715 5714 5713 5712 5712 5711 5711 5711 5711 5710 5709 5708 5708 5708 5707 5704 5701 5698 5696 5695 5695 5694 5693 5692
5742 5742 5743 5742 5742 5743 5743 5742 5741 5740 5741 5740 5738 5735 5733 5732 5729 5726 5724 5724 5724 5723 5724 5725 5725 5721 5712 5708 5712 5714 5717 5718 5716 5716 5717 5720 5724 5722 5719 5720 5721 5723 5722 5720 5720 5720 5718 5716 5716 5716 5716 5716 5717 5716 5715 5715 5714 5713 5713 5712 5711 5710 5709 5708 5707 5706 5705 5705 5705 5704 5704 5704 5703 5702 5701 5701 5701 5699 5696 5692 5689 5688 5688 5687 5686 5685
5733 5735 5737 5734 5735 5740 5738 5735 5734 5734 5735 5732 5730 5729 5726 5725 5720 5716 5719 5720 5718 5720 5721 5720 5716 5709 5703 5706 5709 5710 5713 5713 5711 5711 5710 5712 5715 5714 5711 5709 5709 5712 5714 5714 5714 5715 5714 5711 5708 5707 5708 5708 5709 5710 5709 5708 5708 5707 5706 5706 5705 5704 5702 5702 5701 5700 5699 5699 5698 5698 5698 5698 5697 5695 5695 5694 5694 5693 5691 5688 5684 5682 5681 5680 5679 5678
5724 5726 5732 5730 5730 5733 5731 5729 5729 5728 5727 5724 5723 5722 5718 5717 5713 5711 5715 5715 5710 5712 5714 5711 5706 5701 5700 5702 5703 5703 5704 5704 5705 5706 5705 5705 5706 5704 5703 5702 5701 5703 5704 5705 5707 5708 5708 5707 5705 5703 5701 5701 5701 5701 5701 5701 5701 5701 5700 5700 5698 5697 5696 5695 5694 5694 5693 5692 5691 5691 5691 5691 5690 5688 5688 5687 5687 5686 5685 5683 5680 5677 5676 5674 5673 5671
5715 5716 5725 5723 5721 5725 5723 5723 5724 5720 5718 5718 5716 5713 5710 5712 5712 5708 5708 5708 5704 5702 5703 5701 5696 5695 5698 5697 5698 5698 5695 5696 5699 5700 5699 5698 5697 5697 5697 5696 5696 5696 5696 5697 5699 5700 5700 5700 5700 5699 5697 5696 5694 5693 5692 5692 5693 5694 5693 5693 5692 5691 5690 5689 5688 5687 5686 5685 5684 5684 5683 5683 5682 5681 5680 5680 5679 5679 5678 5677 5675 5672 5670 5668 5667 5665
5706 5705 5715 5714 5710 5715 5716 5716 5717 5714 5711 5710 5708 5706 5707 5709 5708 5701 5697 5700 5700 5693 5693 5695 5689 5688 5692 5690 5690 5692 5690 5691 5693 5693 5693 5692 5691 5690 5691 5691 5690 5690 5689 5690 5691 5692 5693 5693 5693 5693 5692 5691 5689 5687 5685 5684 5684 5685 5686 5686 5685 5684 5683 5682 5682 5680 5679 5678 5677 5676 5676 5675 5674 5673 5673 5672 5671 5671 5671 5669 5668 5667 5665 5662 5660 5658
5698 5694 5702 5705 5700 5704 5707 5706 5707 5706 5702 5700 5700 5703 5705 5701 5698 5695 5689 5690 5691 5683 5683 5688 5684 5682 5686 5684 5683 5685 5685 5686 5685 5684 5685 5686 5685 5684 5685 5685 5683 5682 5681 5682 5684 5685 5686 5686 5685 5686 5685 5684 5683 5681 5679 5678 5677 5678 5678 5679 5678 5677 5676 5676 5674 5673 5671 5670 5669 5668 5668 5667 5666 5665 5665 5664 5664 5663 5662 5662 5661 5660 5658 5656 5653 5652
5690 5682 5686 5695 5694 5694 5697 5697 5696 5696 5693 5692 5695 5699 5697 5692 5690 5689 5682 5679 5681 5675 5672 5677 5678 5677 5680 5681 5681 5680 5679 5679 5675 5674 5677 5679 5678 5677 5677 5678 5676 5674 5674 5675 5676 5677 5678 5678 5677 5677 5677 5676 5675 5675 5674 5673 5672 5671 5670 5670 5670 5669 5669 5668 5667 5665 5663 5662 5661 5661 5660 5659 5658 5658 5656 5655 5655 5654 5654 5653 5652 5652 5650 5648 5646 5644
5682 5673 5671 5682 5687 5685 5686 5687 5687 5688 5687 5686 5686 5687 5686 5684 5682 5679 5674 5671 5671 5665 5662 5665 5667 5672 5678 5679 5680 5677 5674 5672 5666 5664 5669 5670 5670 5670 5669 5669 5668 5667 5668 5668 5668 5669 5671 5671 5670 5668 5667 5667 5667 5668 5668 5668 5667 5665 5663 5662 5662 5661 5661 5660 5659 5657 5655 5654 5653 5653 5652 5652 5650 5649 5648 5646 5646 5646 5645 5644 5643 5642 5641 5640 5639 5637
5671 5666 5661 5668 5674 5674 5675 5678 5678 5681 5681 5676 5674 5674 5675 5676 5673 5668 5663 5663 5663 5657 5654 5654 5653 5665 5677 5674 5673 5673 5668 5666 5662 5658 5662 5663 5662 5663 5662 5660 5660 5659 5659 5659 5660 5661 5664 5664 5663 5662 5660 5658 5659 5660 5662 5662 5661 5659 5657 5656 5655 5654 5653 5652 5650 5649 5647 5646 5645 5645 5644 5643 5642 5641 5639 5638 5637 5637 5636 5635 5634 5634 5633 5632 5630 5629
5658 5657 5654 5656 5658 5659 5664 5669 5668 5668 5669 5665 5662 5663 5665 5667 5664 5658 5651 5652 5655 5648 5646 5646 5639 5652 5672 5668 5664 5668 5663 5661 5660 5654 5655 5658 5656 5656 5656 5654 5654 5654 5653 5651 5650 5652 5656 5657 5655 5653 5652 5651 5652 5653 5653 5653 5653 5651 5650 5649 5648 5647 5646 5644 5642 5641 5640 5638 5638 5638 5636 5635 5634 5633 5632 5630 5629 5628 5628 5627 5626 5625 5624 5623 5622 5621
5650 5649 5647 5646 5647 5647 5653 5660 5660 5658 5659 5656 5652 5652 5656 5657 5654 5649 5641 5643 5646 5638 5639 5640 5626 5634 5662 5664 5658 5662 5659 5656 5657 5653 5651 5653 5651 5650 5648 5645 5645 5647 5647 5645 5643 5643 5645 5647 5645 5642 5641 5642 5643 5643 5643 5643 5643 5642 5641 5641 5640 5640 5639 5636 5635 5634 5632 5631 5631 5630 5629 5628 5626 5625 5624 5622 5621 5620 5619 5619 5618 5617 5615 5614 5613 5612
5647 5643 5639 5639 5640 5642 5645 5651 5653 5653 5652 5648 5645 5647 5648 5647 5647 5642 5636 5636 5635 5629 5632 5631 5615 5621 5650 5658 5652 5656 5655 5650 5650 5650 5649 5649 5647 5643 5639 5637 5637 5637 5639 5640 5638 5636 5636 5635 5633 5630 5631 5632 5632 5634 5634 5633 5632 5631 5631 5630 5630 5630 5629 5628 5627 5626 5624 5624 5623 5623 5622 5620 5619 5617 5616 5614 5613 5612 5611 5611 5610 5608 5606 5604 5603 5602
5642 5637 5635 5634 5633 5635 5637 5642 5645 5647 5645 5639 5637 5641 5641 5641 5640 5634 5631 5629 5622 5622 5628 5621 5607 5616 5639 5646 5642 5646 5648 5645 5645 5646 5644 5643 5640 5635 5631 5632 5632 5631 5631 5632 5631 5630 5628 5625 5621 5620 5621 5621 5622 5624 5624 5622 5621 5621 5620 5620 5619 5619 5619 5619 5619 5618 5617 5616 5616 5615 5614 5613 5612 5610 5608 5606 5605 5604 5604 5603 5601 5598 5596 5595 5593 5592
5632 5628 5629 5627 5623 5624 5627 5632 5637 5639 5635 5630 5629 5633 5634 5634 5631 5626 5624 5619 5611 5615 5619 5610 5605 5615 5628 5632 5634 5638 5639 5638 5639 5639 5636 5633 5630 5627 5626 5626 5626 5625 5624 5624 5624 5623 5620 5616 5612 5611 5611 5612 5612 5613 5613 5612 5612 5612 5611 5610 5610 5609 5609 5610 5610 5609 5608 5608 5607 5607 5606 5605 5604 5602 5600 5599 5597 5597 5596 5594 5592 5589 5587 5586 5584 5583
5620 5614 5619 5618 5612 5613 5617 5621 5628 5627 5621 5619 5621 5624 5625 5624 5623 5619 5612 5607 5607 5607 5603 5601 5606 5608 5611 5620 5627 5630 5632 5630 5630 5630 5627 5624 5623 5623 5623 5620 5618 5618 5618 5618 5617 5614 5609 5605 5603 5603 5602 5604 5604 5603 5603 5603 5604 5604 5603 5603 5602 5602 5601 5601 5601 5601 5600 5599 5598 5598 5598 5596 5595 5594 5593 5591 5590 5589 5588 5586 5583 5581 5579 5577 5576 5574
5606 5599 5607 5608 5600 5602 5605 5608 5615 5614 5608 5608 5611 5612 5614 5614 5613 5608 5600 5599 5604 5596 5586 5596 5604 5595 5596 5610 5617 5620 5624 5622 5621 5620 5618 5617 5616 5617 5617 5615 5613 5613 5612 5611 5608 5603 5599 5596 5594 5593 5592 5594 5595 5594 5594 5595 5595 5596 5596 5596 5596 5594 5594 5594 5593 5593 5591 5590 5591 5591 5590 5588 5587 5587 5585 5584 5582 5581 5579 5577 5575 5573 5571 5569 5568 5566
5595 5589 5597 5598 5590 5592 5595 5595 5600 5601 5597 5598 5599 5599 5603 5603 5601 5597 5592 5595 5598 5585 5576 5588 5593 5585 5589 5600 5605 5610 5613 5611 5609 5610 5610 5609 5609 5609 5608 5606 5606 5606 5604 5602 5598 5595 5592 5589 5587 5585 5584 5585 5585 5585 5585 5586 5587 5588 5588 5588 5588 5587 5586 5586 5585 5584 5583 5583 5584 5583 5582 5581 5580 5578 5576 5575 5574 5572 5571 5569 5567 5565 5563 5561 5559 5558
5587 5580 5588 5590 5582 5581 5585 5585 5588 5589 5586 5585 5587 5588 5590 5590 5589 5587 5585 5587 5587 5577 5573 5579 5578 5575 5583 5590 5593 5598 5599 5597 5598 5600 5600 5600 5601 5602 5599 5596 5597 5596 5593 5590 5588 5586 5584 5582 5579 5577 5577 5578 5577 5576 5577 5578 5579 5579 5579 5580 5579 5579 5579 5578 5577 5577 5576 5576 5575 5574 5573 5572 5570 5569 5568 5566 5565 5564 5562 5561 5559 5557 5555 5553 5551 5549
5579 5573 5578 5581 5572 5567 5574 5577 5576 5576 5574 5572 5575 5578 5579 5578 5577 5577 5577 5579 5578 5570 5570 5573 5565 5563 5575 5583 5584 5586 5586 5585 5585 5587 5590 5592 5594 5593 5589 5587 5588 5585 5580 5579 5578 5577 5576 5574 5571 5570 5568 5567 5566 5567 5568 5569 5569 5569 5569 5571 5571 5571 5571 5570 5569 5569 5568 5568 5566 5564 5564 5563 5561 5560 5559 5558 5556 5555 5554 5552 5550 5548 5547 5545 5543 5541
5573 5567 5571 5572 5559 5554 5566 5570 5564 5565 5562 5557 5561 5568 5571 5570 5568 5569 5571 5572 5569 5564 5563 5562 5554 5554 5568 5575 5573 5573 5575 5574 5574 5577 5580 5582 5584 5582 5576 5576 5577 5574 5570 5569 5569 5570 5568 5565 5563 5561 5558 5556 5556 5557 5558 5558 5558 5559 5560 5562 5562 5562 5562 5560 5560 5560 5559 5558 5556 5555 5554 5553 5553 5552 5551 5549 5548 5546 5545 5543 5541 5540 5538 5537 5535 5533
5565 5561 5562 5561 5549 5543 5555 5559 5555 5555 5545 5537 5549 5563 5565 5564 5562 5560 5560 5561 5562 5560 5553 5547 5546 5551 5560 5562 5558 5559 5562 5563 5564 5567 5569 5569 5568 5566 5563 5563 5565 5564 5561 5560 5560 5561 5559 5557 5554 5550 5546 5545 5546 5546 5547 5548 5549 5550 5551 5551 5552 5552 5551 5550 5550 5549 5549 5548 5547 5546 5545 5545 5544 5543 5542 5540 5539 5537 5536 5534 5533 5531 5529 5528 5526 5524
5556 5554 5552 5550 5542 5535 5543 5548 5544 5536 5523 5524 5544 5556 5554 5554 5554 5550 5548 5550 5553 5551 5544 5538 5538 5543 5547 5546 5544 5545 5547 5550 5553 5554 5554 5552 5549 5549 5550 5552 5553 5554 5552 5551 5551 5552 5550 5546 5544 5540 5536 5534 5534 5535 5536 5537 5538 5539 5540 5540 5541 5540 5540 5540 5540 5539 5539 5539 5537 5536 5536 5536 5535 5534 5532 5531 5530 5529 5527 5526 5524 5522 5521 5519 5518 5516
5547 5546 5542 5540 5535 5529 5534 5538 5527 5512 5511 5523 5535 5540 5540 5543 5544 5539 5536 5539 5540 5539 5536 5530 5527 5529 5531 5531 5531 5532 5534 5538 5539 5538 5538 5538 5536 5536 5536 5539 5541 5541 5540 5540 5540 5541 5538 5534 5532 5529 5525 5523 5523 5524 5525 5525 5527 5528 5529 5530 5530 5529 5529 5530 5530 5530 5530 5529 5528 5527 5527 5526 5525 5524 5523 5522 5521 5520 5519 5517 5515 5514 5512 5511 5509 5507
5536 5536 5533 5531 5527 5522 5523 5522 5508 5501 5512 5520 5519 5525 5532 5532 5532 5528 5521 5524 5530 5528 5523 5518 5513 5513 5515 5514 5516 5518 5521 5522 5521 5522 5526 5527 5525 5522 5519 5520 5524 5525 5525 5525 5526 5526 5525 5522 5520 5518 5515 5512 5512 5512 5513 5514 5515 5517 5519 5520 5520 5519 5519 5519 5520 5521 5520 5519 5518 5518 5517 5516 5515 5515 5514 5513 5512 5511 5510 5508 5507 5505 5503 5502 5500 5499
5525 5525 5524 5520 5516 5514 5511 5506 5501 5499 5504 5506 5507 5517 5523 5521 5522 5520 5509 5509 5517 5511 5504 5503 5500 5497 5498 5499 5500 5502 5504 5505 5505 5510 5516 5513 5507 5506 5506 5506 5508 5509 5510 5510 5510 5510 5510 5509 5508 5506 5503 5502 5502 5501 5501 5503 5505 5508 5509 5509 5510 5510 5509 5509 5510 5511 5510 5509 5508 5508 5507 5506 5506 5505 5505 5504 5503 5502 5501 5499 5498 5496 5495 5493 5492 5490
5514 5513 5513 5508 5505 5507 5504 5498 5496 5492 5490 5495 5502 5508 5509 5509 5513 5512 5502 5497 5498 5492 5490 5494 5488 5480 5482 5485 5486 5488 5491 5492 5492 5497 5502 5499 5496 5498 5499 5498 5497 5498 5499 5499 5498 5498 5499 5498 5497 5494 5492 5492 5493 5491 5491 5492 5495 5498 5499 5499 5500 5500 5500 5500 5501 5500 5499 5498 5498 5498 5497 5497 5497 5496 5495 5494 5493 5492 5491 5490 5488 5487 5485 5484 5483 5482
5502 5501 5502 5497 5494 5498 5497 5490 5487 5485 5483 5488 5494 5496 5498 5499 5502 5502 5493 5482 5478 5477 5480 5483 5476 5470 5471 5471 5471 5475 5480 5479 5479 5484 5488 5488 5488 5488 5488 5489 5489 5488 5488 5489 5489 5490 5490 5489 5488 5486 5484 5485 5484 5482 5481 5482 5485 5489 5490 5490 5490 5491 5492 5491 5490 5489 5488 5488 5487 5487 5487 5488 5488 5487 5485 5484 5484 5483 5481 5480 5479 5478 5476 5475 5474 5473
5489 5489 5490 5487 5484 5487 5487 5479 5478 5479 5477 5478 5481 5485 5488 5488 5490 5490 5479 5467 5467 5468 5466 5466 5464 5462 5462 5460 5459 5463 5466 5465 5466 5471 5474 5476 5477 5476 5476 5479 5480 5479 5479 5479 5480 5481 5482 5481 5479 5477 5476 5476 5475 5474 5472 5472 5476 5480 5481 5481 5481 5482 5483 5481 5479 5479 5478 5477 5477 5476 5477 5477 5477 5476 5476 5475 5474 5473 5472 5471 5470 5468 5467 5466 5465 5464
5473 5474 5475 5475 5473 5475 5475 5468 5469 5473 5471 5468 5470 5473 5475 5477 5479 5476 5463 5455 5457 5457 5453 5454 5454 5452 5452 5452 5451 5452 5453 5451 5453 5458 5462 5464 5465 5465 5465 5465 5467 5468 5469 5469 5470 5470 5471 5470 5470 5468 5467 5466 5466 5466 5464 5464 5467 5470 5471 5472 5473 5472 5472 5470 5469 5468 5467 5467 5467 5466 5466 5467 5466 5466 5466 5466 5465 5464 5463 5462 5461 5459 5458 5458 5456 5455
5457 5456 5457 5458 5459 5461 5462 5458 5458 5463 5463 5461 5461 5461 5462 5464 5462 5456 5450 5446 5444 5442 5442 5444 5443 5442 5443 5442 5441 5442 5442 5442 5442 5445 5449 5451 5453 5455 5455 5454 5455 5456 5457 5457 5458 5459 5459 5459 5459 5458 5458 5457 5457 5457 5457 5457 5458 5459 5461 5463 5463 5461 5460 5460 5459 5458 5457 5457 5457 5457 5456 5457 5457 5457 5457 5457 5456 5455 5455 5454 5452 5451 5450 5449 5448 5446
5444 5439 5439 5444 5446 5445 5446 5445 5444 5445 5449 5454 5454 5451 5451 5448 5441 5437 5438 5437 5432 5428 5429 5432 5432 5431 5431 5431 5431 5431 5432 5433 5433 5434 5436 5438 5440 5443 5444 5445 5444 5444 5445 5446 5446 5447 5448 5448 5448 5449 5448 5448 5448 5448 5447 5447 5448 5449 5451 5453 5452 5450 5450 5449 5448 5447 5447 5447 5448 5448 5447 5447 5448 5448 5448 5447 5447 5446 5446 5445 5443 5442 5441 5439 5438 5437
5432 5430 5426 5429 5432 5429 5426 5426 5427 5427 5433 5442 5443 5439 5437 5433 5428 5425 5425 5424 5420 5415 5413 5416 5420 5420 5419 5419 5421 5421 5421 5423 5424 5424 5426 5427 5428 5430 5432 5434 5434 5434 5434 5435 5435 5436 5437 5438 5439 5440 5439 5439 5438 5438 5438 5438 5438 5440 5442 5441 5441 5440 5439 5439 5438 5437 5438 5438 5438 5439 5439 5439 5439 5439 5439 5438 5438 5437 5437 5436 5434 5433 5431 5430 5428 5427
5417 5421 5417 5412 5413 5414 5409 5407 5411 5415 5421 5427 5426 5422 5420 5418 5416 5416 5416 5413 5410 5406 5404 5405 5408 5409 5408 5408 5410 5411 5411 5411 5412 5414 5415 5416 5418 5418 5419 5421 5423 5423 5423 5424 5425 5425 5425 5426 5428 5429 5429 5429 5429 5428 5429 5429 5429 5430 5431 5430 5429 5430 5429 5428 5428 5428 5428 5428 5429 5430 5430 5430 5430 5429 5429 5428 5428 5428 5427 5426 5424 5422 5420 5419 5418 5417
5403 5406 5405 5398 5396 5396 5394 5397 5403 5404 5407 5413 5410 5403 5401 5402 5403 5405 5405 5402 5398 5396 5395 5395 5396 5397 5397 5396 5396 5398 5400 5400 5401 5402 5403 5404 5406 5407 5408 5409 5411 5412 5412 5414 5414 5414 5414 5416 5417 5418 5419 5420 5420 5418 5418 5418 5419 5420 5420 5419 5419 5419 5418 5418 5418 5417 5417 5418 5419 5420 5420 5420 5420 5419 5418 5417 5417 5416 5416 5415 5413 5411 5409 5408 5406 5406
5394 5393 5390 5386 5384 5381 5381 5389 5395 5390 5391 5401 5399 5387 5385 5388 5391 5393 5392 5387 5384 5382 5381 5382 5383 5384 5384 5383 5382 5384 5388 5389 5389 5389 5391 5392 5393 5395 5396 5397 5399 5401 5402 5402 5403 5403 5403 5404 5406 5407 5408 5409 5409 5407 5406 5407 5408 5408 5408 5408 5408 5407 5407 5407 5407 5407 5408 5409 5410 5410 5410 5409 5409 5408 5407 5406 5405 5404 5404 5403 5401 5400 5398 5396 5395 5394
5385 5382 5377 5376 5376 5371 5368 5375 5380 5376 5378 5388 5385 5375 5374 5377 5377 5377 5375 5371 5368 5367 5366 5368 5369 5369 5369 5370 5369 5368 5373 5376 5376 5375 5378 5380 5381 5382 5384 5384 5386 5389 5390 5391 5391 5391 5392 5393 5394 5394 5394 5396 5396 5395 5394 5396 5396 5395 5395 5396 5396 5395 5396 5397 5397 5397 5398 5399 5399 5399 5398 5397 5397 5396 5395 5394 5394 5393 5392 5391 5390 5389 5387 5385 5383 5382
5370 5369 5367 5366 5363 5361 5359 5361 5362 5361 5366 5374 5371 5363 5363 5365 5362 5360 5359 5355 5352 5352 5351 5352 5353 5353 5353 5355 5354 5352 5356 5361 5363 5362 5363 5367 5370 5370 5370 5372 5374 5376 5377 5379 5379 5379 5379 5379 5380 5380 5380 5383 5384 5382 5381 5383 5383 5382 5382 5383 5383 5384 5384 5384 5385 5385 5386 5387 5388 5387 5387 5386 5386 5385 5384 5384 5383 5383 5381 5380 5379 5378 5376 5375 5373 5371
5358 5356 5357 5354 5347 5348 5351 5350 5347 5346 5352 5361 5360 5351 5349 5350 5348 5345 5345 5342 5340 5338 5337 5337 5338 5338 5338 5338 5338 5337 5340 5345 5349 5349 5349 5354 5358 5357 5357 5359 5361 5363 5365 5365 5365 5365 5366 5365 5365 5365 5367 5370 5370 5369 5368 5370 5370 5370 5370 5370 5370 5371 5371 5371 5372 5372 5373 5375 5376 5376 5376 5376 5376 5375 5375 5374 5373 5373 5371 5370 5368 5366 5365 5364 5363 5360
5349 5346 5347 5343 5336 5337 5340 5338 5336 5335 5337 5344 5346 5339 5334 5334 5332 5331 5331 5329 5326 5326 5324 5322 5323 5324 5324 5324 5324 5323 5325 5330 5335 5336 5336 5340 5344 5344 5343 5346 5348 5350 5353 5352 5351 5351 5352 5351 5350 5350 5353 5356 5357 5356 5356 5358 5357 5357 5357 5357 5356 5357 5357 5357 5358 5359 5360 5362 5363 5363 5363 5364 5364 5365 5364 5363 5362 5361 5360 5360 5358 5356 5355 5354 5352 5350